Regional Weather Roundup
Issued by NWS

Home | Current Version | Previous Version | Graphics & Text | Print | Product List | Glossary On
Versions: 1 2 3 4 5 6 7 8 9 10 11 12 13 14 15 16 17 18 19 20 21 22 23 24 25 26 27 28 29 30 31 32 33 34 35 36 37 38 39 40 41 42 43 44 45 46 47 48 49 50
000
ASUS43 KIND 010259
RWRIN

WEATHER ROUNDUP FOR INDIANA
NATIONAL WEATHER SERVICE INDIANAPOLIS IN
1100 PM EDT MON AUG 31 2015

NOTE: "FAIR" INDICATES FEW OR NO CLOUDS BELOW 12,000 FEET WITH NO
SIGNIFICANT WEATHER AND/OR OBSTRUCTIONS TO VISIBILITY.

* - STATION DOES NOT REPORT WEATHER SUCH AS PRECIPITATION OR FOG.

+ - STATION NOT QUALITY CONTROLLED BY THE NATIONAL WEATHER SERVICE.
    USE DATA WITH CAUTION...ESPECIALLY DEWPOINT AND RELATIVE
    HUMIDITY OBSERVATIONS.

INZ001>003-010>013-019-020-010400-
NORTHWEST INDIANA

CITY           SKY/WX    TMP DP  RH WIND       PRES   REMARKS
GARY /AIRPORT/ CLEAR     70  66  88 CALM      30.05  FOG
KNOX *+        MOCLDY    72  72 100 S3        30.06R
MONTICELLO +   CLEAR     73  71  92 S3        30.06S
RENSSELAER +   CLEAR     70  70 100 SE3       30.07R

$$

LMZ046-743>745-010400-
SOUTHERN LAKE MICHIGAN

STATION/POSITION TIME  TEMP    WIND        PRES    WAVE
                       AIR SEA DIR/SP/G            HT
                 (UTC) (F)     (DEG/KT/KT) (MB)    (FT)
BURNS HARBOR     0200   79     150/  4/  5 1017.6R
MICHIGAN CITY    0200   76     120/  5/  5   N/A
5NW MICH CITY    0200   74 72  130/  4/  6   N/A     0

$$

INZ004-005-014>016-021>024-010400-
NORTH CENTRAL INDIANA

CITY           SKY/WX    TMP DP  RH WIND       PRES   REMARKS
GOSHEN         PTCLDY    71  68  90 CALM      30.07R
SOUTH BEND     CLEAR     71  68  90 CALM      30.07R
WARSAW +       MOCLDY    70  70 100 CALM      30.08R

$$

INZ006>009-017-018-025>027-010400-
NORTHEAST INDIANA

CITY           SKY/WX    TMP DP  RH WIND       PRES   REMARKS
ANGOLA *+      MOCLDY    70  61  73 CALM      30.09R VSB 3/4
FORT WAYNE     PTCLDY    72  68  87 S7        30.09R

$$

INZ028-029-035-036-043>045-051>053-010400-
WEST CENTRAL INDIANA

CITY           SKY/WX    TMP DP  RH WIND       PRES   REMARKS
CRAWFORDSVL +  CLEAR     66  66  99 SE3       30.09S
GREENCASTLE +  CLEAR     70  64  83 CALM      30.10S
LAFAYETTE      CLEAR     71  68  90 CALM      30.07R
TERRE HAUTE    CLEAR     74  68  81 S5        30.08R

$$

INZ030>032-037>040-046>048-054>057-064-065-010400-
CENTRAL INDIANA

CITY           SKY/WX    TMP DP  RH WIND       PRES   REMARKS
FRANKFORT +    PTCLDY   N/A N/A N/A CALM      30.11S
GREENWOOD *+   PTCLDY    70  66  88 CALM      30.11R
INDIANAPOLIS   CLEAR     75  67  76 S6        30.09R
-EAGLE CREEK   CLEAR     75  69  81 CALM      30.09R
KOKOMO *+      CLEAR     72  61  68 S5        30.09R
MT COMFORT *+  CLEAR     70  70 100 S5        30.11R
SHELBYVILLE    CLEAR     71  66  84 CALM      30.10R
ZIONSVILLE +   CLEAR     71  66  85 S3        30.11R

$$

INZ033-034-041-042-049-050-058-059-010400-
EAST CENTRAL INDIANA

CITY           SKY/WX    TMP DP  RH WIND       PRES   REMARKS
MUNCIE         PTCLDY    71  67  87 NW3       30.11R

$$

INZ060-061-067>069-081>083-085>088-010400-
SOUTHWEST INDIANA

CITY           SKY/WX    TMP DP  RH WIND       PRES   REMARKS
EVANSVILLE     CLEAR     75  68  78 CALM      30.09R
HUNTINGBURG *+ CLEAR     72  66  83 CALM      30.10R

$$

INZ062-063-066-070>080-084-089>092-010400-
SOUTH CENTRAL AND SOUTHEAST INDIANA

CITY           SKY/WX    TMP DP  RH WIND       PRES   REMARKS
BLOOMINGTON    CLEAR     69  67  93 CALM      30.11R FOG
MADISON *+     CLEAR     68  64  88 CALM      30.13S
SEYMOUR +      CLEAR     72  66  83 CALM      30.10R

$$



USA.gov is the U.S. government's official web portal to all federal, state and local government web resources and services.